Regional Weather Roundup
Issued by NWS

Home | Current Version | Previous Version | Text Only | Print | Product List | Glossary Off
Versions: 1 2 3 4 5 6 7 8 9 10 11 12 13 14 15 16 17 18 19 20 21 22 23 24 25 26 27 28 29 30 31 32 33 34 35 36 37 38 39 40 41 42 43 44 45 46 47 48 49 50

000
ASUS43 KBIS 272120
RWRND

NORTH DAKOTA REGIONAL WEATHER ROUNDUP
NATIONAL WEATHER SERVICE BISMARCK ND
300 PM CST TUE JAN 27 2015

NOTE: "FAIR" INDICATES FEW OR NO CLOUDS BELOW 12,000 FEET WITH NO
SIGNIFICANT WEATHER AND/OR OBSTRUCTIONS TO VISIBILITY.


NDZ001>003-009>011-017-272200-
NORTHWEST NORTH DAKOTA

CITY           SKY/WX    TMP DP  RH WIND       PRES   REMARKS
WILLISTON      PTSUNNY   51  35  54 SW5       29.79F
MINOT          MOSUNNY   48  36  63 W6        29.77F
MINOT AFB      MOSUNNY   45  43  93 W2        29.77F
$$

NDZ018>021-031>035-040>046-272200-
SOUTHWEST NORTH DAKOTA

CITY           SKY/WX    TMP DP  RH WIND       PRES   REMARKS
BISMARCK       MOSUNNY   51  32  48 SW5       29.83F
DICKINSON      MOSUNNY   59  38  45 W8        29.80F
GARRISON         N/A     49  39  68 SW7       29.79F
HETTINGER ARPT MOSUNNY   63  35  35 W12       29.85F
$$

NDZ004>008-012>016-024-026-027-054-272200-
NORTHEAST NORTH DAKOTA

CITY           SKY/WX    TMP DP  RH WIND       PRES   REMARKS
GRAND FORKS    CLOUDY    31  29  92 S14       29.96F
GRND FRKS AFB  CLOUDY    32  29  88 S17       29.95F
DEVILS LAKE    PTSUNNY   37  32  81 S14       29.85S
$$

NDZ022-023-025-028>030-036>039-047>053-272200-
SOUTHEAST NORTH DAKOTA

CITY           SKY/WX    TMP DP  RH WIND       PRES   REMARKS
FARGO          CLOUDY    32  29  88 SE17G29   29.99F
JAMESTOWN      PTSUNNY   41  35  79 S15       29.87F
$$



USA.gov is the U.S. government's official web portal to all federal, state and local government web resources and services.